Time,TemperatureF,DewpointF,PressureIn,WindDirection,WindDirectionDegrees,WindSpeedMPH,WindSpeedGustMPH,Humidity,HourlyPrecipIn,Conditions,Clouds,dailyrainin,SoftwareType,DateUTC
2013-05-13 00:02:00,38.0,32.0,30.09,ENE,63,3.0,10.0,78,0.00,,,0.00,,2013-05-13 05:02:00,
2013-05-13 00:12:00,38.0,32.0,30.09,ENE,63,3.0,10.0,78,0.00,,,0.00,,2013-05-13 05:12:00,
2013-05-13 00:21:00,38.0,32.0,30.09,NE,55,0.0,8.0,80,0.00,,,0.00,,2013-05-13 05:21:00,
2013-05-13 00:32:00,37.0,32.0,30.10,ENE,64,1.0,5.0,81,0.00,,,0.00,,2013-05-13 05:32:00,
2013-05-13 00:42:00,37.0,32.0,30.10,ENE,64,1.0,5.0,81,0.00,,,0.00,,2013-05-13 05:42:00,
2013-05-13 00:52:00,37.0,32.0,30.10,NE,42,0.0,5.0,82,0.00,,,0.00,,2013-05-13 05:52:00,
2013-05-13 01:01:00,36.0,31.0,30.10,ENE,69,0.0,2.0,82,0.00,,,0.00,,2013-05-13 06:01:00,
2013-05-13 01:11:00,36.0,31.0,30.10,ENE,69,0.0,2.0,82,0.00,,,0.00,,2013-05-13 06:11:00,
2013-05-13 01:21:00,36.0,31.0,30.10,NE,46,0.0,2.0,83,0.00,,,0.00,,2013-05-13 06:21:00,
2013-05-13 01:31:00,36.0,31.0,30.11,NE,46,0.0,1.0,83,0.00,,,0.00,,2013-05-13 06:31:00,
2013-05-13 01:42:00,35.0,31.0,30.11,NE,46,0.0,1.0,84,0.00,,,0.00,,2013-05-13 06:42:00,
2013-05-13 01:52:00,35.0,31.0,30.11,NE,46,0.0,1.0,84,0.00,,,0.00,,2013-05-13 06:52:00,
2013-05-13 02:01:00,35.0,31.0,30.11,NE,47,0.0,1.0,84,0.00,,,0.00,,2013-05-13 07:01:00,
2013-05-13 02:11:00,35.0,31.0,30.11,NE,47,0.0,1.0,84,0.00,,,0.00,,2013-05-13 07:11:00,
2013-05-13 02:22:00,35.0,31.0,30.11,NE,46,0.0,1.0,85,0.00,,,0.00,,2013-05-13 07:22:00,
2013-05-13 02:31:00,34.0,30.0,30.10,NE,47,0.0,0.0,85,0.00,,,0.00,,2013-05-13 07:31:00,
2013-05-13 02:41:00,34.0,30.0,30.10,NE,47,0.0,0.0,85,0.00,,,0.00,,2013-05-13 07:41:00,
2013-05-13 02:52:00,34.0,30.0,30.10,NE,47,0.0,0.0,85,0.00,,,0.00,,2013-05-13 07:52:00,
2013-05-13 03:02:00,33.0,29.0,30.10,NE,46,0.0,0.0,86,0.00,,,0.00,,2013-05-13 08:02:00,
2013-05-13 03:11:00,33.0,29.0,30.10,NE,46,0.0,0.0,86,0.00,,,0.00,,2013-05-13 08:11:00,
2013-05-13 03:21:00,33.0,29.0,30.10,NE,47,0.0,0.0,86,0.00,,,0.00,,2013-05-13 08:21:00,
2013-05-13 03:31:00,33.0,30.0,30.10,NE,47,0.0,0.0,87,0.00,,,0.00,,2013-05-13 08:31:00,
2013-05-13 03:42:00,33.0,30.0,30.10,NE,47,0.0,0.0,87,0.00,,,0.00,,2013-05-13 08:42:00,
2013-05-13 03:52:00,33.0,30.0,30.10,NE,47,0.0,0.0,87,0.00,,,0.00,,2013-05-13 08:52:00,
2013-05-13 04:01:00,33.0,30.0,30.10,NE,46,0.0,0.0,88,0.00,,,0.00,,2013-05-13 09:01:00,
2013-05-13 04:11:00,33.0,30.0,30.10,NE,46,0.0,0.0,88,0.00,,,0.00,,2013-05-13 09:11:00,
2013-05-13 04:21:00,32.0,29.0,30.10,NE,47,0.0,0.0,88,0.00,,,0.00,,2013-05-13 09:21:00,
2013-05-13 04:33:00,32.0,29.0,30.10,NE,47,0.0,0.0,88,0.00,,,0.00,,2013-05-13 09:33:00,
2013-05-13 04:42:00,32.0,29.0,30.10,NE,47,0.0,0.0,88,0.00,,,0.00,,2013-05-13 09:42:00,
2013-05-13 04:52:00,32.0,29.0,30.10,NE,46,0.0,0.0,88,0.00,,,0.00,,2013-05-13 09:52:00,
2013-05-13 05:02:00,32.0,29.0,30.10,NE,47,0.0,0.0,89,0.00,,,0.00,,2013-05-13 10:02:00,
2013-05-13 05:12:00,32.0,29.0,30.10,NE,47,0.0,0.0,89,0.00,,,0.00,,2013-05-13 10:12:00,
2013-05-13 05:22:00,32.0,29.0,30.10,NE,47,0.0,0.0,89,0.00,,,0.00,,2013-05-13 10:22:00,
2013-05-13 05:32:00,31.0,28.0,30.10,NE,47,0.0,0.0,89,0.00,,,0.00,,2013-05-13 10:32:00,
2013-05-13 05:42:00,31.0,28.0,30.10,NE,47,0.0,0.0,89,0.00,,,0.00,,2013-05-13 10:42:00,
2013-05-13 05:52:00,31.0,28.0,30.11,NE,47,0.0,0.0,89,0.00,,,0.00,,2013-05-13 10:52:00,
2013-05-13 06:02:00,31.0,28.0,30.11,NE,46,0.0,0.0,90,0.00,,,0.00,,2013-05-13 11:02:00,
2013-05-13 06:12:00,31.0,28.0,30.11,NE,46,0.0,0.0,90,0.00,,,0.00,,2013-05-13 11:12:00,
2013-05-13 06:21:00,31.0,28.0,30.12,NE,47,0.0,0.0,90,0.00,,,0.00,,2013-05-13 11:21:00,
2013-05-13 06:32:00,32.0,29.0,30.13,NE,46,0.0,0.0,90,0.00,,,0.00,,2013-05-13 11:32:00,
2013-05-13 06:42:00,32.0,29.0,30.13,NE,46,0.0,0.0,90,0.00,,,0.00,,2013-05-13 11:42:00,
2013-05-13 06:52:00,33.0,31.0,30.13,NE,47,0.0,0.0,91,0.00,,,0.00,,2013-05-13 11:52:00,
2013-05-13 07:01:00,34.0,32.0,30.14,NE,47,0.0,0.0,91,0.00,,,0.00,,2013-05-13 12:01:00,
2013-05-13 07:11:00,34.0,32.0,30.14,NE,47,0.0,0.0,91,0.00,,,0.00,,2013-05-13 12:11:00,
2013-05-13 07:21:00,36.0,34.0,30.14,NE,47,0.0,0.0,91,0.00,,,0.00,,2013-05-13 12:21:00,
2013-05-13 07:32:00,38.0,36.0,30.14,NE,48,0.0,1.0,91,0.00,,,0.00,,2013-05-13 12:32:00,
2013-05-13 07:42:00,38.0,36.0,30.14,NE,48,0.0,1.0,91,0.00,,,0.00,,2013-05-13 12:42:00,
2013-05-13 07:52:00,39.0,36.0,30.14,NE,49,0.0,1.0,88,0.00,,,0.00,,2013-05-13 12:52:00,
2013-05-13 08:01:00,39.0,35.0,30.14,SW,230,1.0,5.0,85,0.00,,,0.00,,2013-05-13 13:01:00,
2013-05-13 08:11:00,39.0,35.0,30.14,SW,230,1.0,5.0,85,0.00,,,0.00,,2013-05-13 13:11:00,
2013-05-13 08:21:00,40.0,35.0,30.15,SW,232,0.0,3.0,83,0.00,,,0.00,,2013-05-13 13:21:00,
2013-05-13 08:31:00,41.0,35.0,30.15,SSE,166,1.0,6.0,79,0.00,,,0.00,,2013-05-13 13:31:00,
2013-05-13 08:41:00,42.0,36.0,30.16,South,183,1.0,5.0,78,0.00,,,0.00,,2013-05-13 13:41:00,
2013-05-13 08:52:00,42.0,36.0,30.16,South,183,1.0,5.0,78,0.00,,,0.00,,2013-05-13 13:52:00,
2013-05-13 09:02:00,43.0,35.0,30.16,SSE,167,0.0,5.0,74,0.00,,,0.00,,2013-05-13 14:02:00,
2013-05-13 09:11:00,43.0,35.0,30.16,SSE,167,0.0,5.0,74,0.00,,,0.00,,2013-05-13 14:11:00,
2013-05-13 09:22:00,44.0,35.0,30.15,South,189,0.0,5.0,71,0.00,,,0.00,,2013-05-13 14:22:00,
2013-05-13 09:31:00,45.0,35.0,30.15,ENE,77,1.0,6.0,69,0.00,,,0.00,,2013-05-13 14:31:00,
2013-05-13 09:41:00,45.0,35.0,30.15,ENE,77,1.0,6.0,69,0.00,,,0.00,,2013-05-13 14:41:00,
2013-05-13 09:52:00,46.0,34.0,30.14,SW,225,3.0,6.0,62,0.00,,,0.00,,2013-05-13 14:52:00,
2013-05-13 10:01:00,47.0,30.0,30.15,NW,304,0.0,5.0,51,0.00,,,0.00,,2013-05-13 15:01:00,
2013-05-13 10:11:00,47.0,30.0,30.15,NW,304,0.0,5.0,51,0.00,,,0.00,,2013-05-13 15:11:00,
2013-05-13 10:21:00,48.0,31.0,30.15,East,90,1.0,6.0,52,0.00,,,0.00,,2013-05-13 15:21:00,
2013-05-13 10:31:00,50.0,32.0,30.15,SSW,213,1.0,4.0,50,0.00,,,0.00,,2013-05-13 15:31:00,
2013-05-13 10:42:00,50.0,32.0,30.15,SSW,213,1.0,4.0,50,0.00,,,0.00,,2013-05-13 15:42:00,
2013-05-13 10:53:00,50.0,31.0,30.15,WSW,253,2.0,7.0,47,0.00,,,0.00,,2013-05-13 15:53:00,
2013-05-13 11:03:00,50.0,32.0,30.15,SSE,148,0.0,7.0,49,0.00,,,0.00,,2013-05-13 16:03:00,
2013-05-13 11:11:00,50.0,32.0,30.15,SSE,148,0.0,7.0,49,0.00,,,0.00,,2013-05-13 16:11:00,
2013-05-13 11:21:00,51.0,29.0,30.15,West,265,1.0,9.0,43,0.00,,,0.00,,2013-05-13 16:21:00,
2013-05-13 11:33:00,52.0,31.0,30.15,WSW,250,4.0,7.0,45,0.00,,,0.00,,2013-05-13 16:33:00,
2013-05-13 11:42:00,53.0,31.0,30.14,South,172,5.0,8.0,43,0.00,,,0.00,,2013-05-13 16:42:00,
2013-05-13 11:52:00,53.0,31.0,30.14,South,172,5.0,8.0,43,0.00,,,0.00,,2013-05-13 16:52:00,
2013-05-13 12:02:00,53.0,30.0,30.14,WSW,242,4.0,7.0,41,0.00,,,0.00,,2013-05-13 17:02:00,
2013-05-13 12:12:00,53.0,30.0,30.14,WSW,242,4.0,7.0,41,0.00,,,0.00,,2013-05-13 17:12:00,
2013-05-13 12:21:00,53.0,31.0,30.13,NW,308,2.0,8.0,42,0.00,,,0.00,,2013-05-13 17:21:00,
2013-05-13 12:32:00,54.0,31.0,30.13,SSW,196,2.0,7.0,41,0.00,,,0.00,,2013-05-13 17:32:00,
2013-05-13 12:42:00,54.0,31.0,30.13,SSW,196,2.0,7.0,41,0.00,,,0.00,,2013-05-13 17:42:00,
2013-05-13 12:54:00,55.0,32.0,30.12,WNW,286,4.0,7.0,41,0.00,,,0.00,,2013-05-13 17:54:00,
2013-05-13 13:03:00,56.0,32.0,30.11,NW,319,0.0,7.0,40,0.00,,,0.00,,2013-05-13 18:03:00,
2013-05-13 13:12:00,56.0,32.0,30.11,NW,319,0.0,7.0,40,0.00,,,0.00,,2013-05-13 18:12:00,
2013-05-13 13:23:00,56.0,33.0,30.11,SW,214,2.0,7.0,42,0.00,,,0.00,,2013-05-13 18:23:00,
2013-05-13 13:32:00,57.0,31.0,30.09,NW,305,0.0,6.0,37,0.00,,,0.00,,2013-05-13 18:32:00,
2013-05-13 13:42:00,57.0,32.0,30.09,West,269,4.0,7.0,38,0.00,,,0.00,,2013-05-13 18:42:00,
2013-05-13 13:52:00,57.0,32.0,30.09,West,269,4.0,7.0,38,0.00,,,0.00,,2013-05-13 18:52:00,
2013-05-13 14:01:00,58.0,33.0,30.08,SW,224,4.0,6.0,38,0.00,,,0.00,,2013-05-13 19:01:00,
2013-05-13 14:11:00,58.0,33.0,30.08,SW,224,4.0,6.0,38,0.00,,,0.00,,2013-05-13 19:11:00,
2013-05-13 14:21:00,58.0,31.0,30.08,SSW,203,1.0,7.0,35,0.00,,,0.00,,2013-05-13 19:21:00,
2013-05-13 14:32:00,58.0,31.0,30.07,West,281,2.0,9.0,36,0.00,,,0.00,,2013-05-13 19:32:00,
2013-05-13 14:44:00,59.0,32.0,30.07,SSW,205,5.0,10.0,36,0.00,,,0.00,,2013-05-13 19:44:00,
2013-05-13 14:53:00,59.0,32.0,30.07,SSW,205,5.0,10.0,36,0.00,,,0.00,,2013-05-13 19:53:00,
2013-05-13 15:01:00,59.0,32.0,30.06,South,191,5.0,11.0,36,0.00,,,0.00,,2013-05-13 20:01:00,
2013-05-13 15:11:00,59.0,32.0,30.06,South,191,5.0,11.0,36,0.00,,,0.00,,2013-05-13 20:11:00,
2013-05-13 15:23:00,59.0,31.0,30.05,SW,228,2.0,6.0,35,0.00,,,0.00,,2013-05-13 20:23:00,
2013-05-13 15:33:00,60.0,36.0,30.05,SSW,205,6.0,10.0,40,0.00,,,0.00,,2013-05-13 20:33:00,
2013-05-13 15:44:00,60.0,36.0,30.05,SSW,205,6.0,10.0,40,0.00,,,0.00,,2013-05-13 20:44:00,
2013-05-13 15:53:00,61.0,34.0,30.04,SW,219,4.0,10.0,36,0.00,,,0.00,,2013-05-13 20:53:00,
2013-05-13 16:03:00,60.0,32.0,30.03,SSW,203,4.0,9.0,35,0.00,,,0.00,,2013-05-13 21:03:00,
2013-05-13 16:14:00,60.0,32.0,30.03,SSW,203,4.0,9.0,35,0.00,,,0.00,,2013-05-13 21:14:00,
2013-05-13 16:23:00,60.0,32.0,30.02,SSW,213,2.0,9.0,35,0.00,,,0.00,,2013-05-13 21:23:00,
2013-05-13 16:33:00,61.0,33.0,30.02,SW,215,8.0,11.0,35,0.00,,,0.00,,2013-05-13 21:33:00,
2013-05-13 16:43:00,61.0,33.0,30.02,SW,215,8.0,11.0,35,0.00,,,0.00,,2013-05-13 21:43:00,
2013-05-13 16:53:00,61.0,32.0,30.02,South,184,4.0,7.0,33,0.00,,,0.00,,2013-05-13 21:53:00,
2013-05-13 17:02:00,61.0,33.0,30.01,South,181,3.0,8.0,35,0.00,,,0.00,,2013-05-13 22:02:00,
2013-05-13 17:12:00,61.0,33.0,30.01,South,181,3.0,8.0,35,0.00,,,0.00,,2013-05-13 22:12:00,
2013-05-13 17:23:00,61.0,32.0,30.01,South,182,6.0,10.0,33,0.00,,,0.00,,2013-05-13 22:23:00,
2013-05-13 17:32:00,61.0,34.0,30.01,SSE,153,4.0,8.0,36,0.00,,,0.00,,2013-05-13 22:32:00,
2013-05-13 17:42:00,60.0,32.0,30.01,SW,214,2.0,9.0,35,0.00,,,0.00,,2013-05-13 22:42:00,
2013-05-13 17:52:00,60.0,32.0,30.01,SW,214,2.0,9.0,35,0.00,,,0.00,,2013-05-13 22:52:00,
2013-05-13 18:02:00,60.0,32.0,30.00,SSW,194,5.0,10.0,35,0.00,,,0.00,,2013-05-13 23:02:00,
2013-05-13 18:12:00,60.0,32.0,30.00,SSW,194,5.0,10.0,35,0.00,,,0.00,,2013-05-13 23:12:00,
2013-05-13 18:23:00,60.0,34.0,29.98,SSW,196,5.0,8.0,38,0.00,,,0.00,,2013-05-13 23:23:00,
2013-05-13 18:33:00,60.0,35.0,29.97,South,173,1.0,9.0,39,0.00,,,0.00,,2013-05-13 23:33:00,
2013-05-13 18:42:00,60.0,35.0,29.97,South,173,1.0,9.0,39,0.00,,,0.00,,2013-05-13 23:42:00,
2013-05-13 18:54:00,59.0,36.0,29.97,South,172,1.0,6.0,42,0.00,,,0.00,,2013-05-13 23:54:00,
2013-05-13 19:02:00,59.0,38.0,29.96,SSW,205,0.0,5.0,45,0.00,,,0.00,,2013-05-14 00:02:00,
2013-05-13 19:12:00,59.0,38.0,29.97,SSE,158,1.0,3.0,45,0.00,,,0.00,,2013-05-14 00:12:00,
2013-05-13 19:22:00,59.0,38.0,29.97,SSE,158,1.0,3.0,45,0.00,,,0.00,,2013-05-14 00:22:00,
2013-05-13 19:31:00,58.0,37.0,29.96,South,180,1.0,4.0,45,0.00,,,0.00,,2013-05-14 00:31:00,
2013-05-13 19:41:00,58.0,37.0,29.96,South,180,1.0,4.0,45,0.00,,,0.00,,2013-05-14 00:41:00,
2013-05-13 19:52:00,58.0,38.0,29.97,SSE,161,2.0,5.0,48,0.00,,,0.00,,2013-05-14 00:52:00,
2013-05-13 20:01:00,55.0,38.0,29.97,ENE,70,1.0,7.0,53,0.00,,,0.00,,2013-05-14 01:01:00,
2013-05-13 20:11:00,55.0,38.0,29.97,ENE,70,1.0,7.0,53,0.00,,,0.00,,2013-05-14 01:11:00,
2013-05-13 20:21:00,54.0,38.0,29.99,ENE,77,0.0,7.0,55,0.00,,,0.00,,2013-05-14 01:21:00,
2013-05-13 20:31:00,53.0,38.0,29.99,NE,45,2.0,7.0,57,0.00,,,0.00,,2013-05-14 01:31:00,
2013-05-13 20:43:00,53.0,38.0,29.99,NE,45,2.0,7.0,57,0.00,,,0.00,,2013-05-14 01:43:00,
2013-05-13 20:53:00,52.0,38.0,29.98,ENE,64,1.0,6.0,59,0.00,,,0.00,,2013-05-14 01:53:00,
2013-05-13 21:02:00,51.0,37.0,29.98,SSE,158,2.0,7.0,59,0.00,,,0.00,,2013-05-14 02:02:00,
2013-05-13 21:11:00,50.0,37.0,29.98,NW,309,2.0,6.0,60,0.00,,,0.00,,2013-05-14 02:11:00,
2013-05-13 21:22:00,50.0,37.0,29.98,NW,309,2.0,6.0,60,0.00,,,0.00,,2013-05-14 02:22:00,
2013-05-13 21:32:00,50.0,37.0,29.98,NNE,14,1.0,7.0,60,0.00,,,0.00,,2013-05-14 02:32:00,
2013-05-13 21:42:00,50.0,37.0,29.98,NNE,14,1.0,7.0,60,0.00,,,0.00,,2013-05-14 02:42:00,
2013-05-13 21:52:00,49.0,36.0,29.98,NNE,26,0.0,6.0,60,0.00,,,0.00,,2013-05-14 02:52:00,
2013-05-13 22:01:00,49.0,37.0,29.96,WNW,298,0.0,5.0,62,0.00,,,0.00,,2013-05-14 03:01:00,
2013-05-13 22:11:00,49.0,37.0,29.96,WNW,298,0.0,5.0,62,0.00,,,0.00,,2013-05-14 03:11:00,
2013-05-13 22:21:00,49.0,37.0,29.96,SSW,192,0.0,6.0,62,0.00,,,0.00,,2013-05-14 03:21:00,
2013-05-13 22:33:00,49.0,36.0,29.94,ENE,71,1.0,10.0,61,0.00,,,0.00,,2013-05-14 03:33:00,
2013-05-13 22:42:00,49.0,36.0,29.94,ENE,71,1.0,10.0,61,0.00,,,0.00,,2013-05-14 03:42:00,
2013-05-13 22:53:00,48.0,36.0,29.94,SSW,204,2.0,7.0,62,0.00,,,0.00,,2013-05-14 03:53:00,
2013-05-13 23:02:00,48.0,36.0,29.93,South,171,1.0,7.0,62,0.00,,,0.00,,2013-05-14 04:02:00,
2013-05-13 23:13:00,48.0,36.0,29.93,South,171,1.0,7.0,62,0.00,,,0.00,,2013-05-14 04:13:00,
2013-05-13 23:22:00,48.0,36.0,29.92,South,174,0.0,6.0,62,0.00,,,0.00,,2013-05-14 04:22:00,
2013-05-13 23:32:00,48.0,35.0,29.91,SSE,161,1.0,6.0,61,0.00,,,0.00,,2013-05-14 04:32:00,
2013-05-13 23:43:00,48.0,35.0,29.91,SSE,161,1.0,6.0,61,0.00,,,0.00,,2013-05-14 04:43:00,
2013-05-13 23:53:00,48.0,35.0,29.90,ENE,78,1.0,8.0,60,0.00,,,0.00,,2013-05-14 04:53:00,